This demonstration page uses our WeatherBlox Daily Observations layout. Learn more.

Left ArrowRight Arrow

39.12711, -84.51439

Hourly Observations for May 16, 2016

Temp ( °F °C ) Dew Point ( °F °C ) Humidity (%) Winds ( mph kmh ) Pressure ( in mb ) Visibility ( mi km ) Precip ( " mm )
12:53 am 00:53 Clear 38 3.3 33 0.6 83 83 Calm 30.26 1025 10 16 0.00 0.00
1:53 am 01:53 Clear 38 3.3 34 1.1 86 86 Calm 30.26 1025 10 16 0.00 0.00
2:53 am 02:53 Clear 35 1.7 34 1.1 96 96 Calm 30.26 1025 10 16 0.00 0.00
3:53 am 03:53 Clear 35 1.7 33 0.6 93 93 Calm 30.25 1025 10 16 0.00 0.00
4:53 am 04:53 Clear 34 1.1 33 0.6 97 97 Calm 30.26 1025 10 16 0.00 0.00
5:53 am 05:53 Clear 32 0 32 0 100 100 Calm 30.27 1025 10 16 0.00 0.00
6:53 am 06:53 Sunny 34 1.1 34 1.1 100 100 Calm 30.28 1025 10 16 0.00 0.00
7:53 am 07:53 Sunny 40 4.4 37 2.8 89 89 Calm 30.30 1026 10 16 0.00 0.00
8:53 am 08:53 Sunny 46 7.8 34 1.1 63 63 S 5 7 30.31 1026 10 16 0.00 0.00
9:53 am 09:53 Sunny 49 9.4 35 1.7 59 59 SW 3 6 30.31 1027 10 16 0.00 0.00
10:53 am 10:53 Sunny 54 12.2 35 1.7 49 49 VRB 3 6 30.29 1026 10 16 0.00 0.00
11:53 am 11:53 Sunny 56 13.3 34 1.1 44 44 S 8 13 30.28 1026 10 16 0.00 0.00
12:53 pm 12:53 Sunny 59 15 34 1 39 39 SSW 8 13 30.27 1025 10 16 0.00 0.00
1:53 pm 13:53 Sunny 60 15.6 36 2.2 41 41 SW 9 15 30.25 1024 10 16 0.00 0.00
2:53 pm 14:53 Sunny 61 16.1 37 2.8 41 41 Calm 30.23 1024 10 16 0.00 0.00
3:53 pm 15:53 Sunny 62 16.7 37 2.8 40 40 SSW 8 13 30.22 1023 10 16 0.00 0.00
4:53 pm 16:53 Sunny 62 16.7 36 2.2 38 38 SW 3 6 30.21 1023 10 16 0.00 0.00
5:53 pm 17:53 Sunny 62 16.7 38 3.3 41 41 SE 9 15 30.18 1022 10 16 0.00 0.00
6:53 pm 18:53 Mostly Cloudy 60 15.6 41 5 50 50 S 7 11 30.19 1022 10 16 0.00 0.00
7:53 pm 19:53 Mostly Cloudy 58 14.4 44 6.7 60 60 S 3 6 30.19 1022 10 16 0.00 0.00
8:53 pm 20:53 Cloudy 56 13.3 42 5.6 60 60 S 6 9 30.19 1022 10 16 0.00 0.00
9:53 pm 21:53 Cloudy 55 12.8 42 5.6 62 62 S 5 7 30.20 1023 10 16 0.00 0.00
10:08 pm 22:08 Cloudy 54 12 43 6 67 67 S 6 9 30.21 1023 10 16 0.00 0.00
10:53 pm 22:53 Cloudy 55 12.8 40 4.4 57 57 S 10 17 30.20 1023 10 16 0.00 0.00
11:53 pm 23:53 Cloudy 54 12.2 42 5.6 64 64 Calm 30.20 1023 10 16 0.00 0.00

Powered by AerisWeather